Regional Weather Roundup
Issued by NWS Grand Forks, ND

Home | Current Version | Previous Version | Text Only | Print | Product List | Glossary Off
Versions: 1 2 3 4 5 6 7 8 9 10 11 12 13 14 15 16 17 18 19 20 21 22 23 24 25 26 27 28 29 30 31 32 33 34 35 36 37 38 39 40 41 42 43 44 45 46 47 48 49 50

149
ASUS43 KFGF 302031
RWRFGF
PRAIRIE TO PINES  WEATHER ROUNDUP
NATIONAL WEATHER SERVICE EASTERN NORTH DAKOTA/GRAND FORKS ND
300 PM CDT FRI SEP 30 2016

 **SATELLITE DATA USED TO AUGMENT SKY COVER AT AUTOMATED STATIONS**
 *****  WEATHER ACROSS EASTERN NORTH DAKOTA  *****

CITY           SKY/WX    TMP DP  RH WIND       PRES   REMARKS
GRAND FORKS    PTSUNNY   69  50  50 SE15G24   30.22F
GRAND FRKS AFB MOSUNNY   67  50  54 S14       30.21F
GRAND FRKS NWS   N/A     66 N/A N/A S7          N/A
DEVILS LAKE    CLOUDY    64  50  60 S16G23    30.17F
FARGO          MOSUNNY   70  48  45 S9        30.22F
WAHPETON ARPT  PTCLDY    70  41  35 SE12G18   30.23F
$$

 ***** WEATHER ACROSS CENTRAL AND WESTERN NORTH DAKOTA  *****

CITY           SKY/WX    TMP DP  RH WIND       PRES   REMARKS
BISMARCK       LGT RAIN  71  47  42 SE23      30.09F
MINOT          CLOUDY    63  51  65 E8        30.09S
JAMESTOWN      MOSUNNY   69  48  47 S18G25    30.16F
MINOT AFB      MOSUNNY   63  49  59 S14       30.07F
GARRISON         N/A     63  51  65 VRB5      30.07F
WILLISTON      CLOUDY    63  50  62 S14       30.00F
DICKINSON      CLOUDY    65  45  48 SE17      30.02F
HETTINGER      PTSUNNY   64  44  48 SE15G22   30.05F
$$

 *****  OTHER AIRPORT OBSERVATIONS IN OUR AREA  *****

CITY           SKY/WX    TMP DP  RH WIND       PRES   REMARKS
WALHALLA       FAIR      64  61  88 SE18G24   30.21S
GRAFTON AIRPOR FAIR      70  52  52 S16G25    30.23F
VALLEY CITY AR FAIR      68  48  49 S15G23    30.20F
CANDO          FAIR      66  48  52 S20G25    30.18S
CAVALIER APRT  FAIR      66  52  59 SE9G23    30.21F
GWINNER        FAIR      73  48  40 S16       30.20F
ROLLA          CLOUDY    63  46  55 S16G29    30.16S
 ***** THE ABOVE OBSERVATIONS ARE NON NWS ARE NOT QUALITY
       CONTROLLED AND MAY MIS-REPORT RAIN FOR SNOW...
$$

  *****  WEATHER ACROSS NORTHERN MINNESOTA  *****

CITY           SKY/WX    TMP DP  RH WIND       PRES   REMARKS
FLAG ISLAND    CLOUDY    55  50  82 S16       30.32S
WARROAD        CLOUDY    55  52  88 SE9       30.32F
ROSEAU         MOSUNNY   61  54  77 SE9       30.30S
HALLOCK        MOSUNNY   70  54  56 S13G20    30.23F
THF RVR FALLS  MOSUNNY   68  50  52 S13       30.27F
BAUDETTE       CLOUDY    56  51  84 SE9       30.34F
WASKISH        PTSUNNY   61  54  77 SE9       30.33F
CROOKSTON      PTSUNNY   66  50  55 S14       30.24F
STEPHEN NDAWN    N/A     66  54  63 SE12        N/A
GREENBUSH NDAW   N/A     66  54  63 S10         N/A
$$
  *****  WEATHER ACROSS CENTRAL AND WEST MINNESOTA  *****

CITY           SKY/WX    TMP DP  RH WIND       PRES   REMARKS
FOSSTON        SUNNY     68  50  52 SE9       30.27F
BEMIDJI        PTSUNNY   58  52  79 SE8       30.31F
PARK RAPIDS    MOSUNNY   65  51  60 E7        30.29F
ELBOW LAKE     FAIR      65  53  65 SE9       30.26F
WADENA         CLOUDY    64  52  63 SE10      30.28F
DETROIT LAKES  SUNNY     63  54  72 SE10      30.28F
MOORHEAD       PTSUNNY   70  48  46 S14       30.23F
FERGUS FALLS   SUNNY     66  52  59 SE13      30.27F
MORRIS MN      SUNNY     72  52  49 SE13      30.23F
STAPLES        SUNNY     64  50  59 SE5       30.29F
$$
  *****  WEATHER ELSEWHERE ACROSS MINNESOTA  *****

CITY           SKY/WX    TMP DP  RH WIND       PRES   REMARKS
DULUTH         CLOUDY    55  52  89 E10       30.36F
INTRNTL FALLS  CLOUDY    55  51  86 S6        30.36F
ELY            SUNNY     66  46  48 CALM      30.35F
CLOQUET        CLOUDY    55  50  82 E8        30.35F
WHEATON        CLOUDY    73  52  46 SE17G23   30.25F
BRAINERD       SUNNY     64  51  62 E5        30.32F
HIBBING        SUNNY     65  49  56 SE7       30.34F
ALEXANDRIA     CLOUDY    66  52  60 SE13      30.29F
SAINT CLOUD    SUNNY     69  49  48 VRB7      30.28F
MINNEAPOLIS    SUNNY     70  51  51 NE9G20    30.26F
$$

  *****  WEATHER ACROSS SOUTH DAKOTA  *****

CITY           SKY/WX    TMP DP  RH WIND       PRES   REMARKS
SIOUX FALLS    PTSUNNY   74  48  39 E13       30.21F
BROOKINGS      MOSUNNY   69  46  43 SE13      30.22F
WATERTOWN      SUNNY     70  46  42 S13G21    30.22F
HURON          MOSUNNY   69  46  43 S15       30.19F
SISSETON         N/A     69  49  48 SE10G20   30.22F
ABERDEEN       PTSUNNY   72  43  35 S12       30.17F
MITCHELL       SUNNY     74  44  34 SE17G24   30.20F
PIERRE         CLOUDY    71  47  42 SE23G31   30.09F
MOBRIDGE       PTSUNNY   74  45  35 SE25G33   30.07F
RAPID CITY     PTSUNNY   71  49  45 SE8       30.04F
$$

  *****  SOME WEATHER IN NEARBY STATES *****

CITY           SKY/WX    TMP DP  RH WIND       PRES   REMARKS
GLASGOW MT     CLOUDY    73  50  44 S8        29.93F
GREAT FALLS MT SUNNY     76  42  29 VRB3      30.01F
CHEYENNE WY    CLOUDY    69  47  45 NE5       30.24F
SCOTTSBLUFF NE CLOUDY    65  48  54 E3        30.14F
OMAHA NE       MOSUNNY   75  45  34 NE8       30.18F
DES MOINES IA  CLOUDY    64  54  69 N7        30.20F
DAVENPORT IA   CLOUDY    64  57  78 N14       30.14F
CHICAGO IL     CLOUDY    64  59  83 NE16G23   30.09S
EAU CLAIRE WI  MOSUNNY   73  50  44 NE13      30.24F
LA CROSSE WI   CLOUDY    68  57  68 CALM      30.21F
$$

  *****  SOME NATIONAL WEATHER *****

CITY           SKY/WX    TMP DP  RH WIND       PRES   REMARKS
LA GUARDIA NY  LGT RAIN  63  58  83 NE26G35   30.24F
RALEIGH NC     PTSUNNY   82  71  69 SE10      29.96F
ATLANTA GA     MOSUNNY   73  47  39 NW12      30.03F
NEW ORLEANS LA MOSUNNY   83  55  38 N9        30.05F
OKLAHOMA CITY  MOSUNNY   74  45  35 CALM      30.16F
ALBUQUERQUE NM MOSUNNY   71  50  47 VRB5      30.25F
SALT LAKE CITY MOSUNNY   77  48  35 S16       30.15F
LOS ANGELES CA MOSUNNY   78  58  49 W14       30.01F
BOISE ID       SUNNY     84  33  16 VRB6      29.99F
SEATTLE WA     MOSUNNY   57  47  69 W6        30.01F
$$

*** WEATHER ACROSS MANITOBA...SASKATCHEWAN AND ONTARIO ***
                ***ONTARIO***

CITY           SKY/WX    TMP DP  RH WIND       PRES   REMARKS
GERALDTON      MOSUNNY   66  50  55 E5        30.41F
THUNDER BAY    MOSUNNY   66  52  59 E7        30.38F
SIOUX LOOKOUT  MOSUNNY   64  52  63 S5        30.36F
TORONTO        PTSUNNY   64  50  59 E15G25    30.25F
BIG TROUT LK   SUNNY     63  50  63 SW6       30.33F
PICKLE LAKE    MOSUNNY   61  46  59 S10       30.38F
DRYDEN         MOSUNNY   61  50  67 S8        30.36F
KENORA         PTSUNNY   61  50  67 S9        30.32F
$$
                *** MANITOBA***

CITY           SKY/WX    TMP DP  RH WIND       PRES   REMARKS
BRANDON        PTSUNNY   66  50  55 SE17      30.12F
DAUPHIN        PTSUNNY   61  52  72 SE16G22   30.10F
ISLAND LAKE    MOSUNNY   66  50  55 S12       30.25F
PILOT MOUND      N/A     64  48  55 S22G29      N/A
THE PAS        MOSUNNY   64  52  63 SE15G21   30.05F
THOMPSON       PTSUNNY   57  55  94 VRB2      30.18F
WINNIPEG       PTSUNNY   68  50  52 S21       30.22F
LYNN LAKE      RAIN      50  48  93 E12       30.17F
CHURCHILL      MOSUNNY   48  41  76 NE10      30.34S
GILLAM         CLOUDY    54  54 100 E6        30.25S
$$
                ***SASKATCHEWAN***

CITY           SKY/WX    TMP DP  RH WIND       PRES   REMARKS
ESTEVAN        PTSUNNY   55  52  88 E12G18    30.02F
KINDERSLEY     MOSUNNY   63  50  63 N7        29.97F
LLOYDMINSTER   CLOUDY    57  48  72 N9        30.01F
PRINCE ALBERT  MOSUNNY   66  52  59 SE9       29.97F
REGINA         MOSUNNY   72  50  46 SE16G23   29.97S
YORKTON        SUNNY     68  50  52 SE16G24   30.01F
N. BATTLEFORD  SUNNY     61  48  63 VRB2      30.00F
LA RONGE       CLOUDY    54  50  87 N9        30.08F
SASKATOON      MOSUNNY   68  50  52 VRB3      29.97F
SWIFT CURRENT  SUNNY     66  52  59 NW9       29.97F
$$
NOTE: THESE ARE AUTOMATED STATIONS WITH LIMITED QUALITY CONTROL
      "FAIR" INDICATES FEW OR NO CLOUDS BELOW 12,000 FEET WITH NO
      SIGNIFICANT WEATHER AND/OR OBSTRUCTIONS TO VISIBILITY.
      SKY/WX - SKY CONDITION AND SIGNIFICANT WEATHER.
      TMP - AIR TEMPERATURE.    DP   - DEWPOINT TEMPERATURE.
      RH  - RELATIVE HUMIDITY.  PRES - PRESSURE.
      HX  - HEAT INDEX.         WCI  - WIND CHILL INDEX.
$




USA.gov is the U.S. government's official web portal to all federal, state and local government web resources and services.